Dewpoint
57 58 59 60 61 61 63 64 64 64 66 65 64 65 65 65 65 65 66 65 65 66 66 65 64 64 64 65 65 65 65 65 66 66 68 68 68 68 68 67 67 67 66 66 66 66 65 64 64 66 66 67 67 66 67 66 65 65 64 64 63 64 64 63 62 61 62 62 62 61 60 60 57 58 61 62 63 62 61 63 63 62 62 61 59
56 57 59 59 59 60 60 61 63 64 64 65 64 64 65 65 65 65 65 65 66 65 65 65 65 65 64 64 65 65 64 64 64 66 66 67 68 68 67 68 67 66 66 64 64 65 66 65 64 64 65 65 66 66 65 67 64 63 63 63 62 62 64 63 62 62 61 63 63 62 59 59 57 58 58 61 63 62 62 63 63 63 63 62 61
53 56 57 58 58 59 60 59 59 60 62 63 63 63 65 65 64 64 64 65 65 66 66 65 65 64 64 64 64 64 64 63 65 65 65 65 65 67 68 67 65 65 65 64 64 64 64 63 62 64 66 65 64 65 65 65 63 61 60 61 62 62 62 63 62 61 61 62 63 60 59 61 59 58 57 58 64 63 62 62 63 63 63 63 62
51 53 55 57 57 58 58 59 60 59 59 60 60 61 62 62 63 63 65 65 65 65 64 65 65 64 64 63 62 62 63 64 64 66 65 65 66 66 66 67 66 66 65 64 63 64 64 64 65 64 64 64 64 66 66 66 65 64 63 63 64 63 63 63 63 62 62 62 62 63 62 62 62 61 63 62 64 64 63 62 62 63 63 63 63
51 50 51 55 57 58 58 58 59 59 59 61 60 60 60 60 60 59 60 61 64 65 65 64 65 64 64 64 63 63 64 63 65 65 65 65 65 65 65 64 65 65 65 65 66 65 64 64 63 64 64 64 65 65 65 64 66 66 64 64 63 62 63 64 63 63 64 63 63 64 63 64 64 65 65 64 64 65 65 65 63 62 62 63 63
50 52 51 53 54 55 57 57 57 58 58 58 59 59 60 59 58 59 57 57 58 60 64 64 64 64 64 64 64 63 64 65 63 63 64 66 66 66 65 64 65 65 65 66 66 66 65 64 64 65 65 64 64 64 64 64 65 65 64 65 64 63 64 65 66 67 65 64 63 62 63 63 63 64 65 66 64 64 65 65 65 65 63 62 62
50 51 52 53 52 53 55 55 56 57 57 58 59 57 56 58 56 55 57 57 57 57 57 57 61 61 62 62 63 64 63 65 65 65 65 64 64 64 65 65 64 64 65 65 66 66 67 67 66 65 64 64 65 65 64 65 65 64 65 65 64 64 63 63 65 64 64 63 63 62 63 64 65 63 64 66 66 65 64 64 64 65 65 64 64
49 49 51 52 53 54 54 55 56 56 57 57 56 57 56 56 56 57 57 57 57 55 55 56 58 57 58 58 59 65 63 63 65 66 65 66 66 66 65 64 64 65 65 65 65 65 65 65 65 64 65 65 65 65 65 64 64 64 64 63 63 62 63 63 64 63 62 62 62 61 62 63 64 65 65 64 63 63 65 64 62 62 63 65 66
46 47 49 51 51 52 54 55 57 55 53 54 55 55 56 57 56 55 55 55 57 56 56 56 55 55 55 57 57 58 61 64 64 64 64 64 65 64 64 64 64 64 64 65 66 66 65 66 66 66 66 66 63 62 62 62 63 63 64 64 64 65 64 64 64 63 63 62 62 62 62 62 63 63 63 63 62 61 62 64 63 63 64 63 64
45 45 45 47 49 46 49 53 50 52 54 55 53 55 54 55 56 56 54 54 54 55 55 55 55 55 55 55 56 59 60 62 57 53 56 59 61 62 64 65 64 63 63 64 64 65 66 66 67 66 65 64 62 58 55 55 58 62 63 64 64 63 62 62 63 62 62 62 62 62 61 61 62 63 63 63 63 63 63 64 63 63 63 62 62
46 45 43 43 44 45 48 47 49 48 52 53 54 51 50 54 55 53 54 54 55 54 54 53 53 55 54 54 56 58 60 58 46 42 42 46 56 59 59 58 57 57 58 58 59 61 64 65 65 66 65 64 62 57 54 53 52 51 54 58 62 63 62 62 63 64 63 62 62 62 62 62 63 63 63 63 63 63 63 63 63 63 62 60 59
41 41 42 43 41 40 45 44 45 48 48 48 49 50 53 52 51 51 52 53 53 54 54 53 53 53 55 54 56 57 57 48 42 42 42 43 49 55 56 56 56 55 54 54 54 55 56 57 61 65 66 65 64 64 61 56 52 52 50 50 54 53 55 61 62 62 62 62 61 62 61 61 61 61 61 62 62 62 62 62 62 62 61 61 61
40 39 39 39 39 44 41 42 44 46 46 47 49 50 50 49 49 50 50 51 52 51 50 52 52 52 53 52 53 55 54 42 42 42 42 41 43 52 54 54 54 54 54 53 53 54 55 57 58 59 60 66 67 65 64 64 58 55 53 52 50 50 50 50 52 60 62 62 61 61 61 61 61 62 63 63 62 62 62 62 61 63 62 61 61
39 36 38 38 39 40 42 41 44 45 47 48 49 48 49 49 50 50 50 50 50 50 50 50 50 50 50 50 52 53 52 44 41 41 41 40 40 47 54 54 54 53 53 53 53 53 53 53 53 54 55 55 56 56 56 56 57 61 61 61 61 61 49 48 50 50 55 61 62 62 62 62 62 62 63 63 63 62 62 61 62 62 61 61 62
38 38 39 38 39 41 40 42 43 44 45 46 49 47 48 49 48 49 48 48 48 48 48 48 49 49 49 50 50 52 55 45 44 43 42 41 41 44 54 54 53 53 53 54 53 53 53 54 54 54 54 55 56 55 55 55 56 56 55 55 55 55 55 58 60 57 55 57 60 61 61 62 62 63 64 64 64 64 63 63 63 62 62 62 61
35 38 37 38 39 39 41 42 45 44 45 46 47 46 47 48 48 48 48 48 48 47 48 47 48 47 48 49 49 50 54 43 43 44 44 43 43 53 52 52 52 52 53 54 53 53 54 54 55 55 54 56 48 42 45 51 55 56 56 56 55 55 55 55 49 49 57 61 62 62 62 62 58 62 62 63 63 63 63 65 62 61 60 59 59
34 37 37 38 40 41 41 42 45 44 45 45 45 46 46 46 47 47 47 46 46 46 46 46 46 47 47 48 48 49 49 47 42 43 43 40 49 52 52 51 51 52 53 54 55 55 56 56 55 56 57 53 42 39 41 49 53 53 53 54 54 54 54 56 51 47 46 44 45 47 49 50 50 50 51 51 56 60 62 62 62 62 61 59 60
35 35 36 36 40 41 41 42 43 43 45 44 45 46 46 47 46 46 45 45 45 46 46 45 46 46 47 47 48 48 49 48 43 43 43 40 45 52 50 50 50 51 52 54 54 54 55 60 59 54 49 44 39 39 40 46 48 48 49 50 50 51 53 54 55 55 49 49 48 47 46 44 45 45 47 48 48 51 58 60 60 61 60 60 60
35 34 36 35 38 41 42 44 43 44 44 45 46 46 46 46 46 47 46 46 46 45 46 45 46 47 47 48 49 49 49 49 44 41 41 41 48 50 50 48 49 50 49 48 49 49 50 51 54 48 45 43 38 38 39 43 45 46 46 46 47 48 50 52 50 49 49 50 51 52 51 51 55 56 56 51 49 52 56 59 61 61 60 59 59
33 34 35 38 41 41 46 46 46 46 44 45 46 46 46 46 47 47 47 45 44 45 46 46 46 46 48 48 49 50 50 50 48 42 43 43 42 49 48 48 47 47 46 46 46 47 48 49 49 44 40 40 39 38 39 39 42 43 44 44 44 45 47 45 45 45 46 47 47 49 49 50 51 52 52 53 56 59 58 58 59 60 61 61 60
37 36 38 38 40 39 44 44 47 47 45 46 48 47 47 47 47 46 46 46 46 46 46 47 47 47 48 49 49 50 51 53 49 42 42 40 40 44 46 47 44 44 44 45 45 46 46 47 48 45 40 39 39 38 38 38 39 43 43 44 45 45 41 41 43 45 44 45 46 47 48 49 50 50 51 51 51 52 54 58 60 60 60 59 59
39 35 36 37 41 40 44 46 47 47 46 47 48 50 50 48 48 47 45 46 46 46 47 46 46 45 46 48 50 51 50 53 49 41 40 39 39 40 45 44 41 42 43 43 44 45 45 45 45 44 39 38 38 38 38 38 38 43 42 39 38 38 40 42 42 42 43 44 45 45 46 46 47 48 48 49 50 51 51 52 57 61 61 61 61
36 36 38 40 43 42 45 46 46 44 46 49 49 49 50 48 50 47 46 46 45 45 46 46 46 45 46 46 48 49 50 51 45 44 39 38 38 38 38 40 38 44 42 41 42 42 43 44 45 45 38 38 38 38 38 38 40 41 38 38 38 37 40 42 42 43 43 44 45 45 45 46 46 46 47 48 49 49 50 50 51 52 55 60 63
37 37 41 41 43 43 41 44 43 48 47 49 49 49 50 48 48 46 48 45 43 43 43 44 44 44 44 45 46 45 47 48 43 42 41 38 38 38 38 37 38 40 41 41 41 42 43 44 43 38 38 38 38 38 38 38 39 38 38 38 38 39 41 42 42 44 44 45 45 45 46 46 46 46 46 48 48 49 50 51 51 52 52 53 56
40 38 40 40 42 40 41 45 42 48 47 47 48 48 49 50 47 47 46 44 43 42 42 41 42 42 44 44 44 44 46 46 44 42 39 39 38 38 37 37 37 38 42 41 42 43 41 38 38 38 38 38 38 38 39 40 39 39 39 39 43 43 43 43 44 45 45 46 46 46 46 46 46 46 47 48 48 49 49 51 51 51 51 52 52
37 37 40 40 40 38 39 40 35 46 47 48 48 49 46 45 45 47 44 42 42 42 41 40 40 41 42 42 43 43 45 45 46 46 43 41 40 38 38 38 40 40 41 41 39 38 38 38 38 38 39 39 41 42 43 43 41 40 40 41 44 43 43 43 44 45 45 46 46 46 47 47 47 47 48 48 48 48 49 49 50 50 50 50 50
38 40 43 40 43 42 44 42 41 45 50 45 45 45 39 42 42 44 43 41 41 41 40 40 40 40 41 42 42 42 42 44 42 41 40 40 39 39 39 39 41 40 40 41 41 40 40 40 39 38 38 38 38 39 39 41 41 43 44 45 45 45 45 46 45 46 46 47 47 48 48 49 49 48 48 48 49 49 50 49 50 50 50 50 50
36 36 40 43 43 39 37 40 43 43 45 47 47 49 40 41 42 43 44 43 41 41 41 42 41 41 41 41 41 42 41 42 41 40 39 38 38 38 38 39 39 39 39 39 39 39 39 39 39 41 43 45 47 49 48 48 46 46 47 48 48 48 49 49 48 47 48 50 50 49 48 49 48 49 49 50 49 49 49 49 49 49 49 50 49
37 38 41 41 44 37 36 37 42 42 46 50 46 45 46 46 45 45 48 46 45 44 42 43 43 44 41 42 42 41 40 40 41 37 40 37 37 38 38 38 38 38 39 37 38 38 38 39 40 42 45 44 44 45 44 45 44 45 47 47 47 47 47 45 46 46 46 45 45 45 45 45 44 45 46 47 49 51 51 51 51 51 50 50 49
39 36 38 40 42 38 39 36 39 38 42 42 45 43 38 36 42 45 44 41 38 39 39 45 44 46 43 45 46 43 40 41 38 37 37 37 37 37 37 37 36 37 38 36 37 37 38 39 41 42 42 42 42 42 42 42 43 42 43 41 43 43 42 42 43 42 42 42 42 42 42 42 42 43 43 43 44 46 47 47 50 51 51 50 50
32 34 40 40 38 40 38 40 40 37 40 45 46 40 41 40 35 35 37 39 37 37 37 38 38 37 43 43 42 39 38 37 37 37 37 37 37 37 36 36 36 36 36 36 37 38 38 39 40 41 41 41 41 42 42 41 41 41 41 42 42 42 41 42 42 41 41 41 41 41 41 41 41 42 42 42 43 43 45 46 48 50 51 51 52
37 35 34 37 42 39 42 40 41 41 37 38 37 40 36 37 41 36 35 37 37 37 37 37 37 37 37 39 42 42 40 37 37 37 37 37 37 37 36 36 36 36 36 36 35 35 38 40 40 40 41 41 40 40 41 41 40 41 41 41 41 41 41 41 41 42 41 41 40 39 40 40 40 41 41 42 42 44 45 46 46 47 48 49 50
39 38 34 35 38 36 35 39 44 42 41 40 40 40 34 33 32 38 40 36 36 37 37 37 37 37 37 37 37 38 38 38 37 37 37 37 37 37 36 36 36 36 37 37 36 36 40 41 40 40 40 40 40 40 40 41 40 41 40 40 40 40 41 41 41 41 40 40 40 40 40 40 40 39 38 40 40 41 42 42 43 45 46 46 46
40 41 39 38 34 32 31 37 38 43 46 43 43 39 35 39 37 35 34 37 40 39 36 36 37 37 37 37 37 37 37 37 37 37 37 37 37 36 36 36 36 37 37 39 42 41 40 40 39 39 40 40 40 40 40 40 40 40 40 40 40 40 40 40 40 40 40 40 39 39 39 40 39 40 40 40 40 40 40 40 41 42 44 45 45
35 33 28 30 39 38 41 35 39 41 43 44 40 37 37 37 35 35 33 33 33 32 35 39 38 37 37 37 37 37 37 37 37 37 37 37 37 36 36 38 39 44 41 41 42 39 40 40 39 40 40 39 40 40 40 41 40 40 40 39 39 39 39 39 38 39 38 39 39 40 39 38 40 38 39 39 39 39 39 39 39 39 40 40 42
36 34 39 36 35 38 39 42 41 45 47 47 41 34 31 31 33 34 35 33 35 34 33 37 40 38 37 37 37 37 37 37 37 37 37 36 36 35 35 36 37 35 33 36 37 40 40 38 39 39 40 40 40 40 39 40 40 39 39 39 38 38 38 38 38 37 38 39 39 38 39 39 39 38 39 39 39 38 38 38 38 39 38 39 39
36 36 38 35 35 37 39 41 45 43 34 42 34 38 37 37 38 38 35 38 38 35 35 36 36 45 40 38 40 38 37 37 37 37 36 36 35 36 34 35 36 35 34 37 39 39 39 38 38 38 39 39 38 39 39 39 39 39 38 38 38 38 38 38 38 37 38 37 38 38 38 37 37 37 37 37 37 37 37 37 38 37 37 36 36
38 37 35 40 37 40 40 37 31 32 40 38 40 38 36 37 36 35 39 35 35 36 34 34 34 35 32 37 45 41 38 37 37 36 35 34 32 34 33 35 35 34 35 34 39 38 37 36 38 38 37 38 38 38 38 39 38 38 38 38 38 38 37 38 36 38 37 37 37 37 36 36 36 36 36 36 36 36 36 37 37 37 37 36 36
37 34 32 27 29 35 32 26 24 32 30 34 33 35 37 35 37 35 35 34 35 36 35 35 35 34 33 35 42 42 38 35 34 32 34 32 32 33 34 34 34 32 34 34 36 37 37 36 36 37 37 37 36 38 38 38 38 37 38 38 38 38 37 37 37 37 36 36 36 35 35 35 35 35 35 35 35 36 37 37 37 37 37 36 37
34 36 35 29 29 31 28 30 31 25 26 30 31 34 35 35 35 35 35 35 36 34 34 34 34 34 35 36 35 41 33 35 32 32 31 31 31 32 33 34 34 35 33 34 36 37 38 37 37 37 37 36 36 36 35 36 37 37 37 37 37 36 36 36 36 36 35 35 35 35 35 35 34 34 34 34 35 36 36 36 36 36 37 37 36
33 35 34 30 31 31 29 30 29 31 32 33 34 35 35 35 36 37 35 35 35 35 36 35 33 34 33 33 33 33 33 32 32 33 32 32 32 32 33 34 34 34 34 32 33 36 38 39 38 38 37 37 37 37 36 36 36 36 36 35 35 34 35 36 35 35 35 34 34 34 34 34 33 33 33 33 35 36 36 36 36 37 36 36 36
33 36 37 34 33 32 29 29 30 31 31 31 32 32 34 33 34 35 35 34 33 33 33 34 34 34 34 34 34 33 33 32 32 32 34 33 33 33 34 34 34 36 35 34 34 37 38 39 39 38 37 37 37 37 36 36 36 36 35 34 34 34 34 34 34 34 34 34 34 34 32 31 31 32 33 35 34 35 36 36 37 37 37 36 36
36 36 35 34 33 32 31 33 33 34 33 34 33 31 34 34 36 34 34 34 33 33 33 33 33 34 35 33 34 33 33 34 32 33 33 32 33 33 34 34 34 38 37 38 38 39 38 39 38 38 37 38 38 36 35 35 35 35 35 35 34 34 34 34 34 34 34 34 33 31 29 28 30 32 33 33 34 35 36 36 37 37 36 37 36
34 31 31 32 33 33 33 33 33 33 34 34 34 34 34 32 32 33 32 33 33 34 34 34 34 34 35 35 36 34 35 34 34 33 33 34 36 34 34 34 35 38 38 37 38 38 39 38 37 36 38 38 38 39 37 35 35 35 35 35 34 33 34 34 34 34 32 30 27 25 25 27 30 31 32 33 34 34 35 36 36 36 36 36 36
34 32 31 31 34 32 33 34 34 34 34 33 35 34 33 33 34 34 39 37 36 39 39 36 35 34 33 34 34 34 36 35 34 34 33 33 34 34 33 35 37 38 37 37 37 38 37 36 37 36 35 35 36 37 36 36 36 34 32 31 31 32 33 34 33 31 28 26 22 22 24 27 28 29 31 32 33 34 35 36 36 36 36 36 35
33 32 31 31 32 32 33 33 33 34 35 34 34 34 35 35 34 34 34 34 35 34 34 34 34 34 34 34 34 34 34 35 35 34 34 34 33 33 34 37 38 38 37 37 38 38 37 36 35 35 33 33 33 34 35 36 36 35 34 32 31 30 29 27 26 25 21 21 22 23 24 25 26 28 30 32 33 34 35 36 36 36 36 35 35
36 33 32 31 32 31 32 36 33 33 33 32 33 33 34 34 35 37 35 35 35 35 35 34 34 34 35 34 34 34 34 34 34 35 38 37 36 35 36 40 39 39 38 37 38 38 37 37 36 36 34 33 33 33 32 32 32 32 32 29 28 25 22 21 21 21 21 22 22 22 22 22 24 26 29 31 33 34 35 36 36 36 36 35 35
32 30 31 32 33 31 32 34 33 32 34 34 35 36 35 35 36 35 36 35 35 34 34 34 34 33 33 34 34 33 33 34 33 33 33 33 34 34 36 38 36 35 38 38 38 36 36 35 36 37 35 35 33 32 31 32 32 33 30 26 23 23 23 25 22 22 22 23 23 23 23 24 24 25 27 29 31 33 35 36 36 36 35 35 34
31 31 31 33 33 35 34 35 35 36 36 36 36 36 36 36 35 35 34 35 35 33 33 32 32 32 32 32 32 32 33 32 33 33 33 32 33 34 35 37 38 39 38 37 36 37 38 36 35 35 36 33 32 31 30 29 30 29 29 25 24 26 27 26 24 23 24 24 23 22 22 21 22 23 26 28 30 33 35 35 35 34 34 34 34
35 36 37 39 37 38 37 36 36 36 36 37 36 36 36 36 35 35 34 34 34 33 33 32 32 32 32 32 32 32 32 32 31 32 32 31 31 32 32 34 35 35 34 35 35 36 36 37 36 35 34 35 31 29 27 27 27 28 25 23 27 27 26 26 25 24 21 22 22 22 22 23 23 23 25 27 30 33 35 35 34 34 34 34 34
44 41 40 38 37 36 36 37 37 37 37 38 37 36 35 35 35 34 32 32 31 31 31 32 33 33 32 32 31 32 32 33 33 33 33 33 33 33 34 34 33 34 34 35 36 36 36 35 33 33 32 29 28 27 26 25 27 25 25 26 27 26 25 24 21 22 23 23 23 23 23 24 24 24 26 28 31 33 34 34 34 34 34 34 34